• In Uzbekistan
  • List of Countries
  • For 7 days
  • Water Temperature
  • Weather Map
  • Weather Widgets
  • user-avatar
    Login

    Hourly Weather Miskolc

    Today, 12 November, Tuesday

    Time Temperature Precipitation Wind Pressure Humidity
    00:00 +5°C° 0 mm 2 mps 748 mmHg 89%
    01:00 +5°C° 0 mm 2 mps 748 mmHg 89%
    02:00 +5°C° 0 mm 2 mps 747 mmHg 89%
    03:00 +5°C° 0 mm 2 mps 747 mmHg 89%
    04:00 +5°C° 0 mm 2 mps 746 mmHg 89%
    05:00 +5°C° 0 mm 2 mps 746 mmHg 89%
    06:00 +5°C° 0 mm 2 mps 746 mmHg 88%
    07:00 +5°C° 0 mm 2 mps 746 mmHg 87%
    08:00 +7°C° 0 mm 2 mps 746 mmHg 83%
    09:00 +8°C° 0 mm 2 mps 746 mmHg 79%
    10:00 +9°C° 0 mm 2 mps 745 mmHg 74%
    11:00 +9°C° 0 mm 3 mps 745 mmHg 74%
    12:00 +10°C° 0 mm 3 mps 744 mmHg 74%
    13:00 +10°C° 0 mm 3 mps 744 mmHg 74%
    14:00 +10°C° 0 mm 3 mps 743 mmHg 75%
    15:00 +9°C° 0 mm 2 mps 743 mmHg 76%
    16:00 +9°C° 0 mm 2 mps 742 mmHg 77%
    17:00 +9°C° 0 mm 2 mps 742 mmHg 78%
    18:00 +9°C° 0 mm 2 mps 742 mmHg 78%
    19:00 +9°C° 0 mm 2 mps 742 mmHg 79%
    20:00 +10°C° 0 mm 1 mps 742 mmHg 79%
    21:00 +11°C° 0 mm 1 mps 741 mmHg 80%
    22:00 +11°C° 0 mm 1 mps 741 mmHg 80%
    23:00 +11°C° 0 mm 1 mps 741 mmHg 80%

    Tomorrow, 13 November, Wednesday

    Time Temperature Precipitation Wind Pressure Humidity
    00:00 +10°C° 0 mm 2 mps 741 mmHg 80%
    01:00 +10°C° 0 mm 2 mps 741 mmHg 80%
    02:00 +10°C° 0.1 mm 2 mps 740 mmHg 81%
    03:00 +10°C° 0.1 mm 2 mps 740 mmHg 83%
    04:00 +12°C° 0.1 mm 2 mps 739 mmHg 85%
    05:00 +12°C° 0.6 mm 2 mps 739 mmHg 88%
    06:00 +12°C° 0.6 mm 2 mps 739 mmHg 90%
    07:00 +12°C° 0.6 mm 2 mps 739 mmHg 92%
    08:00 +12°C° 0.5 mm 2 mps 739 mmHg 93%
    09:00 +12°C° 0.5 mm 2 mps 739 mmHg 93%
    10:00 +12°C° 0.5 mm 2 mps 740 mmHg 93%
    11:00 +13°C° 0.1 mm 2 mps 739 mmHg 90%
    12:00 +13°C° 0.1 mm 2 mps 739 mmHg 88%
    13:00 +14°C° 0.1 mm 2 mps 739 mmHg 86%
    14:00 +13°C° 0 mm 2 mps 739 mmHg 87%
    15:00 +12°C° 0 mm 3 mps 738 mmHg 88%
    16:00 +12°C° 0 mm 3 mps 738 mmHg 90%
    17:00 +12°C° 0 mm 2 mps 738 mmHg 89%
    18:00 +12°C° 0 mm 2 mps 738 mmHg 89%
    19:00 +12°C° 0 mm 2 mps 738 mmHg 88%
    20:00 +12°C° 0 mm 3 mps 738 mmHg 86%
    21:00 +12°C° 0 mm 3 mps 739 mmHg 84%
    22:00 +13°C° 0 mm 4 mps 739 mmHg 81%
    23:00 +13°C° 0 mm 3 mps 740 mmHg 82%

    Day after tomorrow, 14 November, Thursday

    Time Temperature Precipitation Wind Pressure Humidity
    00:00 +12°C° 0 mm 3 mps 740 mmHg 82%
    01:00 +13°C° 0 mm 2 mps 741 mmHg 82%
    02:00 +13°C° 0 mm 2 mps 741 mmHg 84%
    03:00 +13°C° 0 mm 2 mps 741 mmHg 86%
    04:00 +12°C° 0 mm 1 mps 741 mmHg 87%
    05:00 +12°C° 0 mm 1 mps 741 mmHg 88%
    06:00 +12°C° 0 mm 1 mps 742 mmHg 89%
    07:00 +11°C° 0 mm 1 mps 742 mmHg 91%
    08:00 +12°C° 0 mm 1 mps 742 mmHg 88%
    09:00 +13°C° 0 mm 1 mps 742 mmHg 85%
    10:00 +14°C° 0 mm 2 mps 742 mmHg 82%
    11:00 +15°C° 0 mm 2 mps 742 mmHg 79%
    12:00 +15°C° 0 mm 2 mps 742 mmHg 77%
    13:00 +16°C° 0 mm 2 mps 742 mmHg 75%
    14:00 +15°C° 0 mm 2 mps 742 mmHg 79%
    15:00 +15°C° 0 mm 2 mps 742 mmHg 84%
    16:00 +14°C° 0 mm 1 mps 742 mmHg 88%
    17:00 +13°C° 0 mm 1 mps 742 mmHg 89%
    18:00 +13°C° 0 mm 2 mps 743 mmHg 89%
    19:00 +13°C° 0 mm 2 mps 743 mmHg 90%
    20:00 +13°C° 0 mm 1 mps 743 mmHg 90%
    21:00 +12°C° 0 mm 1 mps 743 mmHg 90%
    22:00 +12°C° 0 mm 1 mps 743 mmHg 91%
    23:00 +12°C° 0 mm 1 mps 743 mmHg 91%

    15 November, Friday

    Time Temperature Precipitation Wind Pressure Humidity
    00:00 +12°C° 0 mm 1 mps 743 mmHg 91%
    01:00 +12°C° 0 mm 1 mps 744 mmHg 90%
    02:00 +11°C° 0 mm 1 mps 744 mmHg 91%
    03:00 +11°C° 0 mm 1 mps 744 mmHg 91%
    04:00 +11°C° 0 mm 1 mps 744 mmHg 91%
    05:00 +11°C° 0 mm 1 mps 744 mmHg 92%
    06:00 +11°C° 0 mm 1 mps 745 mmHg 92%
    07:00 +10°C° 0 mm 1 mps 745 mmHg 93%
    08:00 +12°C° 0 mm 1 mps 745 mmHg 89%
    09:00 +13°C° 0 mm 2 mps 746 mmHg 85%
    10:00 +14°C° 0 mm 2 mps 746 mmHg 81%
    11:00 +15°C° 0 mm 2 mps 746 mmHg 78%
    12:00 +16°C° 0 mm 2 mps 746 mmHg 74%
    13:00 +16°C° 0 mm 2 mps 746 mmHg 71%
    14:00 +16°C° 0 mm 2 mps 746 mmHg 75%
    15:00 +15°C° 0 mm 2 mps 746 mmHg 78%
    16:00 +14°C° 0 mm 1 mps 746 mmHg 82%
    17:00 +13°C° 0 mm 1 mps 746 mmHg 83%
    18:00 +13°C° 0 mm 1 mps 747 mmHg 83%
    19:00 +13°C° 0 mm 1 mps 747 mmHg 84%
    20:00 +12°C° 0 mm 1 mps 747 mmHg 84%
    21:00 +12°C° 0 mm 1 mps 747 mmHg 85%
    22:00 +12°C° 0 mm 1 mps 747 mmHg 85%
    23:00 +12°C° 0 mm 1 mps 748 mmHg 86%

    16 November, Saturday

    Time Temperature Precipitation Wind Pressure Humidity
    00:00 +11°C° 0 mm 1 mps 748 mmHg 87%
    01:00 +11°C° 0 mm 1 mps 748 mmHg 87%
    02:00 +11°C° 0 mm 1 mps 748 mmHg 88%
    03:00 +11°C° 0 mm 1 mps 748 mmHg 88%
    04:00 +10°C° 0 mm 1 mps 748 mmHg 88%
    05:00 +10°C° 0 mm 1 mps 748 mmHg 89%
    06:00 +10°C° 0 mm 1 mps 748 mmHg 89%
    07:00 +10°C° 0 mm 1 mps 749 mmHg 89%
    08:00 +11°C° 0 mm 1 mps 749 mmHg 84%
    09:00 +13°C° 0 mm 1 mps 749 mmHg 79%
    10:00 +14°C° 0 mm 2 mps 750 mmHg 74%
    11:00 +14°C° 0 mm 2 mps 750 mmHg 72%
    12:00 +15°C° 0 mm 2 mps 749 mmHg 71%
    13:00 +15°C° 0 mm 2 mps 749 mmHg 69%
    14:00 +15°C° 0 mm 2 mps 749 mmHg 73%
    15:00 +14°C° 0 mm 2 mps 749 mmHg 76%
    16:00 +13°C° 0 mm 2 mps 749 mmHg 79%
    17:00 +13°C° 0 mm 1 mps 749 mmHg 80%
    18:00 +12°C° 0 mm 1 mps 750 mmHg 80%
    19:00 +12°C° 0 mm 1 mps 750 mmHg 81%
    20:00 +12°C° 0 mm 1 mps 750 mmHg 81%
    21:00 +11°C° 0 mm 1 mps 750 mmHg 81%
    22:00 +10°C° 0 mm 2 mps 750 mmHg 82%
    23:00 +10°C° 0 mm 2 mps 750 mmHg 83%

    17 November, Sunday

    Time Temperature Precipitation Wind Pressure Humidity
    00:00 +10°C° 0 mm 2 mps 750 mmHg 83%
    01:00 +10°C° 0 mm 2 mps 750 mmHg 84%
    02:00 +9°C° 0 mm 2 mps 749 mmHg 85%
    03:00 +9°C° 0 mm 2 mps 749 mmHg 85%
    04:00 +9°C° 0 mm 2 mps 749 mmHg 85%
    05:00 +10°C° 0 mm 1 mps 749 mmHg 86%
    06:00 +9°C° 0 mm 1 mps 749 mmHg 86%
    07:00 +9°C° 0 mm 1 mps 749 mmHg 87%
    08:00 +10°C° 0 mm 1 mps 749 mmHg 81%
    09:00 +12°C° 0 mm 1 mps 749 mmHg 76%
    10:00 +13°C° 0 mm 1 mps 749 mmHg 71%
    11:00 +14°C° 0 mm 2 mps 749 mmHg 69%
    12:00 +14°C° 0 mm 2 mps 748 mmHg 67%
    13:00 +15°C° 0 mm 2 mps 748 mmHg 65%
    14:00 +14°C° 0 mm 2 mps 748 mmHg 70%
    15:00 +13°C° 0 mm 2 mps 748 mmHg 75%
    16:00 +12°C° 0 mm 1 mps 747 mmHg 80%
    17:00 +12°C° 0 mm 2 mps 747 mmHg 81%
    18:00 +10°C° 0 mm 2 mps 747 mmHg 83%
    19:00 +10°C° 0 mm 2 mps 747 mmHg 84%
    20:00 +10°C° 0 mm 2 mps 747 mmHg 85%
    21:00 +10°C° 0 mm 1 mps 747 mmHg 85%
    22:00 +10°C° 0 mm 1 mps 747 mmHg 86%
    23:00 +10°C° 0 mm 1 mps 747 mmHg 86%
    Show more